GW5713 Weather Reports


Display with metric or nautical units.
time (UTC)temp
F
wind
direction
speed
MPH
gust
MPH
rain 1hr
in
rain 24hr
in
rain mn
in
humidity
%
barometer
mb
20260504173008 63 297 0.0 0.0 0.00 0.00 0.00 33 1061.9
20260504172510 63 286 0.0 0.0 0.00 0.00 0.00 33 1061.9
20260504172011 63 292 0.0 0.0 0.00 0.00 0.00 33 1061.9
20260504171513 63 299 0.0 0.0 0.00 0.00 0.00 32 1061.9
20260504171015 63 296 0.0 0.0 0.00 0.00 0.00 32 1061.9
20260504170506 64 283 0.0 0.0 0.00 0.00 0.00 31 1061.9
20260504151008 60 350 0.0 0.0 0.00 0.00 0.00 36 1061.9
20260504150510 61 343 0.0 0.0 0.00 0.00 0.00 42 1061.9
20260504141010 58 318 0.0 0.0 0.00 0.00 0.00 56 1061.9
20260504140512 58 308 0.0 0.0 0.00 0.00 0.00 56 1061.9
20260504130513 55 245 0.0 0.0 0.00 0.00 0.00 58 1061.9
20260504110508 49 199 0.0 0.0 0.00 0.00 0.00 65 1061.9
20260504100508 52 199 0.0 0.0 0.00 0.00 0.00 59 1061.9
20260504082007 50 175 0.0 0.0 0.00 0.00 0.00 59 1061.9
20260504081508 50 183 0.0 0.0 0.00 0.00 0.00 58 1061.9
20260504081010 50 174 0.0 0.0 0.00 0.00 0.00 58 1061.9
20260504080512 50 177 0.0 0.0 0.00 0.00 0.00 58 1061.9
20260504050507 52 199 0.0 0.0 0.00 0.00 0.00 52 1061.9
20260504050012 52 209 0.0 0.0 0.00 0.00 0.00 52 1061.9
20260504045511 52 197 0.0 0.0 0.00 0.00 0.00 51 1061.9
20260504045014 53 199 0.0 0.0 0.00 0.00 0.00 51 1061.9
20260504044516 53 214 0.0 0.0 0.00 0.00 0.00 50 1061.9
20260504044007 54 207 0.0 0.0 0.00 0.00 0.00 49 1061.9
20260504043509 53 196 0.0 0.0 0.00 0.00 0.00 49 1061.9
20260504043011 52 196 0.0 0.0 0.00 0.00 0.00 51 1061.9
20260504042513 53 197 0.0 0.0 0.00 0.00 0.00 50 1061.9
20260504042015 53 227 0.0 0.0 0.00 0.00 0.00 49 1061.9
20260504041506 53 195 0.0 0.0 0.00 0.00 0.00 49 1061.9
20260504041008 54 189 0.0 0.0 0.00 0.00 0.00 48 1061.9
20260504040510 53 178 0.0 0.0 0.00 0.00 0.00 48 1061.9
20260504040011 54 192 0.0 0.0 0.00 0.00 0.00 48 1061.9
20260504035513 54 179 0.0 0.0 0.00 0.00 0.00 47 1061.9
20260504035015 54 202 0.0 0.0 0.00 0.00 0.00 47 1061.9
20260504034506 55 200 0.0 0.0 0.00 0.00 0.00 46 1061.9
20260504034009 55 181 0.0 0.0 0.00 0.00 0.00 46 1061.9
20260504033511 55 189 0.0 0.0 0.00 0.00 0.00 45 1061.9
20260504033013 55 190 0.0 0.0 0.00 0.00 0.00 45 1061.9
20260504032515 56 222 0.0 0.0 0.00 0.00 0.00 44 1061.9
20260504032017 56 203 0.0 0.0 0.00 0.00 0.00 44 1061.9
20260504031508 56 203 0.0 0.0 0.00 0.00 0.00 43 1061.9
20260504031010 56 269 0.0 0.0 0.00 0.00 0.00 43 1061.9
20260504030511 56 266 0.0 0.0 0.00 0.00 0.00 43 1061.9
20260504030013 56 270 0.0 0.0 0.00 0.00 0.00 43 1061.9
20260504025515 56 277 0.0 0.0 0.00 0.00 0.00 42 1061.9
20260504025006 57 269 0.0 0.0 0.00 0.00 0.00 41 1061.9
20260504024508 57 243 0.0 0.0 0.00 0.00 0.00 41 1061.9
20260504024010 57 258 0.0 0.0 0.00 0.00 0.00 41 1061.9
20260504023513 57 260 0.0 0.0 0.00 0.00 0.00 41 1061.9
20260504023015 57 259 0.0 0.0 0.00 0.00 0.00 41 1061.9
20260504022506 57 261 0.0 0.0 0.00 0.00 0.00 41 1061.9
20260504022008 57 254 0.0 0.0 0.00 0.00 0.00 41 1061.9
20260504021510 58 258 0.0 0.0 0.00 0.00 0.00 40 1061.9
20260504021012 58 256 0.0 0.0 0.00 0.00 0.00 40 1061.9
20260504020513 59 254 0.0 0.0 0.00 0.00 0.00 39 1061.9
20260504020016 59 255 0.0 0.0 0.00 0.00 0.00 39 1061.9
20260504015507 59 248 0.0 0.0 0.00 0.00 0.00 38 1061.9
20260504015008 60 253 0.0 0.0 0.00 0.00 0.00 37 1061.9
20260504014510 60 250 0.0 0.0 0.00 0.00 0.00 37 1061.9
20260504014012 60 240 0.0 0.0 0.00 0.00 0.00 36 1061.9
20260504013514 62 244 0.0 0.0 0.00 0.00 0.00 35 1061.9
20260504013006 62 246 0.0 0.0 0.00 0.00 0.00 35 1061.9
20260504012508 62 244 0.0 0.0 0.00 0.00 0.00 34 1061.9
20260504012010 63 250 0.0 0.0 0.00 0.00 0.00 34 1061.9
20260504011512 64 239 0.0 0.0 0.00 0.00 0.00 33 1061.9
20260504011014 65 244 0.0 0.0 0.00 0.00 0.00 32 1061.9
20260504010515 65 248 0.0 0.0 0.00 0.00 0.00 31 1061.9
20260504010007 66 241 0.0 0.0 0.00 0.00 0.00 30 1061.9
20260504005508 67 244 0.0 0.0 0.00 0.00 0.00 28 1061.9
20260504005010 68 234 0.0 0.0 0.00 0.00 0.00 28 1061.9
20260504004512 68 231 0.0 0.0 0.00 0.00 0.00 28 1061.9
20260504004014 68 238 0.0 0.0 0.00 0.00 0.00 27 1061.9
20260504003505 68 241 0.0 0.0 0.00 0.00 0.00 27 1061.9
20260504003007 69 253 0.0 0.0 0.00 0.00 0.00 27 1061.9
20260504002509 69 235 0.0 0.0 0.00 0.00 0.00 28 1061.9
20260504002011 69 244 0.0 0.0 0.00 0.00 0.00 28 1061.9
20260504001512 69 240 0.0 0.0 0.00 0.00 0.00 27 1061.9
20260504001015 70 234 0.0 0.0 0.00 0.00 0.00 26 1061.9
20260504000507 70 234 0.0 0.0 0.00 0.00 0.00 25 1061.9
20260504000009 70 240 0.0 0.0 0.00 0.00 0.00 26 1061.9
20260503235510 70 252 0.0 0.0 0.00 0.00 0.00 26 1061.9
20260503235012 70 253 0.0 0.0 0.00 0.00 0.00 26 1061.9
20260503234514 70 259 0.0 0.0 0.00 0.00 0.00 25 1061.9
20260503234005 70 250 0.0 0.0 0.00 0.00 0.00 25 1061.9
20260503233507 70 258 0.0 0.0 0.00 0.00 0.00 25 1061.9
20260503233009 71 250 0.0 0.0 0.00 0.00 0.00 25 1061.9
20260503232511 71 258 0.0 0.0 0.00 0.00 0.00 24 1061.9
20260503232013 71 240 0.0 0.0 0.00 0.00 0.00 24 1061.9
20260503231514 71 248 0.0 0.0 0.00 0.00 0.00 24 1061.9
20260503231006 71 234 0.0 0.0 0.00 0.00 0.00 23 1061.9
20260503230508 71 238 0.0 0.0 0.00 0.00 0.00 23 1061.9
20260503230009 71 232 0.0 0.0 0.00 0.00 0.00 24 1061.9
20260503225512 71 248 0.0 0.0 0.00 0.00 0.00 24 1061.9
20260503225014 71 252 0.0 0.0 0.00 0.00 0.00 25 1061.9
20260503224516 71 236 0.0 0.0 0.00 0.00 0.00 25 1061.9
20260503224007 71 241 0.0 0.0 0.00 0.00 0.00 26 1061.9
20260503223509 71 263 0.0 0.0 0.00 0.00 0.00 26 1061.9
20260503223011 71 255 0.0 0.0 0.00 0.00 0.00 26 1061.9
20260503222513 71 253 0.0 0.0 0.00 0.00 0.00 26 1061.9
20260503222014 71 278 0.0 0.0 0.00 0.00 0.00 27 1061.9
20260503221506 71 281 0.0 0.0 0.00 0.00 0.00 25 1061.9
20260503221008 72 265 0.0 0.0 0.00 0.00 0.00 25 1061.9
20260503220509 72 248 0.0 0.0 0.00 0.00 0.00 24 1061.9
20260503220011 71 246 0.0 0.0 0.00 0.00 0.00 25 1061.9
20260503215513 71 295 0.0 0.0 0.00 0.00 0.00 27 1061.9
20260503215015 72 273 0.0 0.0 0.00 0.00 0.00 26 1061.9
20260503214506 72 241 0.0 0.0 0.00 0.00 0.00 26 1061.9
20260503214008 71 236 0.0 0.0 0.00 0.00 0.00 26 1061.9
20260503213510 71 263 0.0 0.0 0.00 0.00 0.00 26 1061.9
20260503213013 71 265 0.0 0.0 0.00 0.00 0.00 24 1061.9
20260503212515 71 273 0.0 0.0 0.00 0.00 0.00 23 1061.9
20260503212006 71 280 0.0 0.0 0.00 0.00 0.00 24 1061.9
20260503211508 70 296 0.0 0.0 0.00 0.00 0.00 23 1061.9
20260503211010 71 294 0.0 0.0 0.00 0.00 0.00 24 1061.9
20260503210511 71 296 0.0 0.0 0.00 0.00 0.00 24 1061.9
20260503210013 71 284 0.0 0.0 0.00 0.00 0.00 26 1061.9
20260503205515 70 281 0.0 0.0 0.00 0.00 0.00 26 1061.9
20260503205006 70 297 0.0 0.0 0.00 0.00 0.00 28 1061.9
20260503204508 70 298 0.0 0.0 0.00 0.00 0.00 28 1061.9
20260503204010 70 289 0.0 0.0 0.00 0.00 0.00 27 1061.9
20260503203512 70 271 0.0 0.0 0.00 0.00 0.00 25 1061.9
20260503203013 70 269 0.0 0.0 0.00 0.00 0.00 26 1061.9
20260503202515 70 291 0.0 0.0 0.00 0.00 0.00 27 1061.9
20260503202007 70 305 0.0 0.0 0.00 0.00 0.00 29 1061.9
20260503201508 70 291 0.0 0.0 0.00 0.00 0.00 28 1061.9
20260503201012 70 270 0.0 0.0 0.00 0.00 0.00 27 1061.9
20260503200513 70 301 0.0 0.0 0.00 0.00 0.00 28 1061.9
20260503200015 70 304 0.0 0.0 0.00 0.00 0.00 28 1061.9
20260503195506 70 278 0.0 0.0 0.00 0.00 0.00 27 1061.9
20260503195008 69 265 0.0 0.0 0.00 0.00 0.00 28 1061.9
20260503194510 70 269 0.0 0.0 0.00 0.00 0.00 28 1061.9
20260503194012 69 258 0.0 0.0 0.00 0.00 0.00 30 1061.9
20260503193513 69 313 0.0 0.0 0.00 0.00 0.00 30 1061.9
20260503193015 68 292 0.0 0.0 0.00 0.00 0.00 32 1061.9
20260503192507 68 280 0.0 0.0 0.00 0.00 0.00 31 1061.9
20260503192009 68 281 0.0 0.0 0.00 0.00 0.00 30 1061.9
20260503191510 69 292 0.0 0.0 0.00 0.00 0.00 30 1061.9
20260503191012 68 329 0.0 0.0 0.00 0.00 0.00 31 1061.9
20260503190514 68 274 0.0 0.0 0.00 0.00 0.00 30 1061.9
20260503190006 69 289 0.0 0.0 0.00 0.00 0.00 32 1061.9
20260503185507 67 313 0.0 0.0 0.00 0.00 0.00 32 1061.9
20260503185009 68 299 0.0 0.0 0.00 0.00 0.00 30 1061.9
20260503184511 68 296 0.0 0.0 0.00 0.00 0.00 31 1061.9
20260503184014 67 269 0.0 0.0 0.00 0.00 0.00 31 1061.9
20260503183516 67 310 0.0 0.0 0.00 0.00 0.00 32 1061.9
20260503183007 67 295 0.0 0.0 0.00 0.00 0.00 32 1061.9
20260503182509 67 321 0.0 0.0 0.00 0.00 0.00 33 1061.9
20260503182010 67 310 0.0 0.0 0.00 0.00 0.00 33 1061.9
20260503181513 68 311 0.0 0.0 0.00 0.00 0.00 33 1061.9
20260503181014 66 323 0.0 0.0 0.00 0.00 0.00 33 1061.9
20260503180516 66 342 0.0 0.0 0.00 0.00 0.00 34 1061.9
20260503180007 67 289 0.0 0.0 0.00 0.00 0.00 33 1061.9
20260503175509 66 303 0.0 0.0 0.00 0.00 0.00 32 1061.9
20260503175011 66 296 0.0 0.0 0.00 0.00 0.00 32 1061.9
20260503174513 66 318 0.0 0.0 0.00 0.00 0.00 32 1061.9
20260503174014 67 304 0.0 0.0 0.00 0.00 0.00 34 1061.9